Time,TemperatureF,DewpointF,PressureIn,WindDirection,WindDirectionDegrees,WindSpeedMPH,WindSpeedGustMPH,Humidity,HourlyPrecipIn,Conditions,Clouds,dailyrainin,SoftwareType,DateUTC
2013-01-11 00:00:00,29.2,25.5,30.46,NE,44,1.9,3.2,85,0.00,n/a,n/a,-99.99,Henriksen +1-Wire,2013-01-11 05:00:00,
2013-01-11 00:01:00,29.2,25.5,30.46,NNE,30,1.7,3.2,85,0.00,n/a,n/a,-99.99,Henriksen +1-Wire,2013-01-11 05:01:00,
2013-01-11 02:02:00,28.3,24.8,30.46,NNW,346,2.0,3.2,86,0.00,n/a,n/a,-99.99,Henriksen +1-Wire,2013-01-11 07:02:00,
2013-01-11 02:06:00,28.2,24.8,30.46,North,358,1.7,3.2,86,0.00,n/a,n/a,-99.99,Henriksen +1-Wire,2013-01-11 07:06:00,
2013-01-11 02:11:00,27.8,24.5,30.46,NNE,24,1.7,3.2,87,0.00,n/a,n/a,-99.99,Henriksen +1-Wire,2013-01-11 07:11:00,
2013-01-11 02:17:00,27.6,24.3,30.45,NNE,20,0.6,3.2,87,0.00,n/a,n/a,-99.99,Henriksen +1-Wire,2013-01-11 07:17:00,
2013-01-11 02:18:00,27.6,24.3,30.45,NNE,20,0.9,2.4,87,0.00,n/a,n/a,-99.99,Henriksen +1-Wire,2013-01-11 07:18:00,
2013-01-11 02:23:00,28.0,24.8,30.45,NNE,33,2.2,2.8,87,0.00,n/a,n/a,-99.99,Henriksen +1-Wire,2013-01-11 07:23:00,
2013-01-11 02:28:00,28.2,25.1,30.45,NE,41,1.1,2.8,88,0.00,n/a,n/a,-99.99,Henriksen +1-Wire,2013-01-11 07:28:00,
2013-01-11 02:33:00,28.0,24.8,30.45,North,5,1.3,2.5,87,0.00,n/a,n/a,-99.99,Henriksen +1-Wire,2013-01-11 07:33:00,
2013-01-11 02:38:00,28.1,25.0,30.45,North,11,1.9,2.5,87,0.00,n/a,n/a,-99.99,Henriksen +1-Wire,2013-01-11 07:38:00,
2013-01-11 02:43:00,28.2,25.1,30.45,North,4,1.7,2.5,87,0.00,n/a,n/a,-99.99,Henriksen +1-Wire,2013-01-11 07:43:00,
2013-01-11 02:48:00,28.3,25.2,30.45,North,4,1.4,2.5,88,0.00,n/a,n/a,-99.99,Henriksen +1-Wire,2013-01-11 07:48:00,
2013-01-11 02:53:00,28.2,25.2,30.45,NNE,25,2.0,2.6,88,0.00,n/a,n/a,-99.99,Henriksen +1-Wire,2013-01-11 07:53:00,
2013-01-11 02:58:00,28.2,25.2,30.45,NNE,17,2.1,3.3,88,0.00,n/a,n/a,-99.99,Henriksen +1-Wire,2013-01-11 07:58:00,
2013-01-11 03:03:00,28.1,25.2,30.44,NNE,23,1.5,3.3,88,0.00,n/a,n/a,-99.99,Henriksen +1-Wire,2013-01-11 08:03:00,
2013-01-11 03:08:00,28.2,25.2,30.44,North,7,1.9,2.6,88,0.00,n/a,n/a,-99.99,Henriksen +1-Wire,2013-01-11 08:08:00,
2013-01-11 03:13:00,28.2,25.2,30.45,North,4,1.7,2.6,88,0.00,n/a,n/a,-99.99,Henriksen +1-Wire,2013-01-11 08:13:00,
2013-01-11 03:18:00,28.4,25.3,30.45,NNW,348,1.9,3.2,88,0.00,n/a,n/a,-99.99,Henriksen +1-Wire,2013-01-11 08:18:00,
2013-01-11 03:24:00,28.4,25.3,30.44,NE,44,0.0,3.2,88,0.00,n/a,n/a,-99.99,Henriksen +1-Wire,2013-01-11 08:24:00,
2013-01-11 03:30:00,28.1,25.0,30.44,NE,48,0.0,0.5,88,0.00,n/a,n/a,-99.99,Henriksen +1-Wire,2013-01-11 08:30:00,
2013-01-11 03:36:00,27.4,24.5,30.44,NNW,344,0.8,1.6,88,0.00,n/a,n/a,-99.99,Henriksen +1-Wire,2013-01-11 08:36:00,
2013-01-11 03:41:00,26.9,24.0,30.44,North,8,2.0,2.8,88,0.00,n/a,n/a,-99.99,Henriksen +1-Wire,2013-01-11 08:41:00,
2013-01-11 03:46:00,26.4,23.7,30.43,NNE,19,1.8,2.8,89,0.00,n/a,n/a,-99.99,Henriksen +1-Wire,2013-01-11 08:46:00,
2013-01-11 03:51:00,26.1,23.4,30.43,NNE,25,2.7,3.3,89,0.00,n/a,n/a,-99.99,Henriksen +1-Wire,2013-01-11 08:51:00,
2013-01-11 03:56:00,26.0,23.3,30.42,NNE,19,1.6,3.3,89,0.00,n/a,n/a,-99.99,Henriksen +1-Wire,2013-01-11 08:56:00,
2013-01-11 04:01:00,26.2,23.5,30.42,NNW,337,1.7,3.2,89,0.00,n/a,n/a,-99.99,Henriksen +1-Wire,2013-01-11 09:01:00,
2013-01-11 04:06:00,26.2,23.4,30.42,North,4,1.2,2.4,88,0.00,n/a,n/a,-99.99,Henriksen +1-Wire,2013-01-11 09:06:00,
2013-01-11 04:11:00,26.0,23.2,30.42,NNE,14,1.6,2.6,88,0.00,n/a,n/a,-99.99,Henriksen +1-Wire,2013-01-11 09:11:00,
2013-01-11 04:16:00,25.9,23.2,30.42,North,4,1.4,2.6,89,0.00,n/a,n/a,-99.99,Henriksen +1-Wire,2013-01-11 09:16:00,
2013-01-11 04:21:00,25.7,23.2,30.42,NNW,343,1.1,2.4,90,0.00,n/a,n/a,-99.99,Henriksen +1-Wire,2013-01-11 09:21:00,
2013-01-11 04:27:00,25.7,23.3,30.42,NW,322,0.8,2.4,90,0.00,n/a,n/a,-99.99,Henriksen +1-Wire,2013-01-11 09:27:00,
2013-01-11 04:33:00,25.6,23.3,30.42,NNW,339,0.9,2.4,90,0.00,n/a,n/a,-99.99,Henriksen +1-Wire,2013-01-11 09:33:00,
2013-01-11 04:39:00,25.7,23.4,30.42,NNW,332,2.0,2.5,90,0.00,n/a,n/a,-99.99,Henriksen +1-Wire,2013-01-11 09:39:00,
2013-01-11 04:44:00,25.8,23.4,30.42,NW,322,0.3,2.5,90,0.00,n/a,n/a,-99.99,Henriksen +1-Wire,2013-01-11 09:44:00,
2013-01-11 04:49:00,25.8,23.4,30.42,NW,325,1.7,2.5,90,0.00,n/a,n/a,-99.99,Henriksen +1-Wire,2013-01-11 09:49:00,
2013-01-11 04:54:00,26.1,23.7,30.42,North,7,2.2,3.2,90,0.00,n/a,n/a,-99.99,Henriksen +1-Wire,2013-01-11 09:54:00,
2013-01-11 04:59:00,26.2,24.0,30.42,North,3,1.5,3.2,91,0.00,n/a,n/a,-99.99,Henriksen +1-Wire,2013-01-11 09:59:00,
2013-01-11 05:04:00,26.0,24.0,30.42,NNW,339,2.6,3.2,91,0.00,n/a,n/a,-99.99,Henriksen +1-Wire,2013-01-11 10:04:00,
2013-01-11 05:09:00,26.0,24.0,30.42,NNW,339,2.3,3.2,91,0.00,n/a,n/a,-99.99,Henriksen +1-Wire,2013-01-11 10:09:00,
2013-01-11 05:14:00,26.0,24.0,30.42,North,350,0.9,3.2,91,0.00,n/a,n/a,-99.99,Henriksen +1-Wire,2013-01-11 10:14:00,
2013-01-11 05:19:00,25.8,23.8,30.43,North,351,0.5,2.4,91,0.00,n/a,n/a,-99.99,Henriksen +1-Wire,2013-01-11 10:19:00,
2013-01-11 05:24:00,25.7,23.8,30.43,NNW,334,2.0,2.4,92,0.00,n/a,n/a,-99.99,Henriksen +1-Wire,2013-01-11 10:24:00,
2013-01-11 05:29:00,25.9,24.0,30.43,NNW,348,0.9,2.8,92,0.00,n/a,n/a,-99.99,Henriksen +1-Wire,2013-01-11 10:29:00,
2013-01-11 05:34:00,26.2,24.5,30.43,North,352,1.0,2.8,93,0.00,n/a,n/a,-99.99,Henriksen +1-Wire,2013-01-11 10:34:00,
2013-01-11 05:39:00,26.3,24.5,30.43,NNW,345,1.7,2.5,93,0.00,n/a,n/a,-99.99,Henriksen +1-Wire,2013-01-11 10:39:00,
2013-01-11 05:44:00,26.0,24.3,30.44,NNW,328,1.9,2.4,93,0.00,n/a,n/a,-99.99,Henriksen +1-Wire,2013-01-11 10:44:00,
2013-01-11 05:49:00,25.9,24.0,30.44,NNW,337,1.4,3.2,92,0.00,n/a,n/a,-99.99,Henriksen +1-Wire,2013-01-11 10:49:00,
2013-01-11 05:54:00,25.9,24.0,30.43,North,2,1.1,3.2,92,0.00,n/a,n/a,-99.99,Henriksen +1-Wire,2013-01-11 10:54:00,
2013-01-11 05:59:00,25.8,23.9,30.44,NNW,341,1.9,2.5,92,0.00,n/a,n/a,-99.99,Henriksen +1-Wire,2013-01-11 10:59:00,
2013-01-11 06:04:00,25.7,23.9,30.44,NW,323,1.9,4.0,92,0.00,n/a,n/a,-99.99,Henriksen +1-Wire,2013-01-11 11:04:00,
2013-01-11 06:10:00,25.7,23.8,30.45,NW,325,2.1,3.2,92,0.00,n/a,n/a,-99.99,Henriksen +1-Wire,2013-01-11 11:10:00,
2013-01-11 06:16:00,25.8,23.9,30.45,NNW,331,2.1,3.2,92,0.00,n/a,n/a,-99.99,Henriksen +1-Wire,2013-01-11 11:16:00,
2013-01-11 06:21:00,25.9,24.0,30.45,NW,320,1.8,3.2,92,0.00,n/a,n/a,-99.99,Henriksen +1-Wire,2013-01-11 11:21:00,
2013-01-11 06:26:00,25.9,23.9,30.45,NNW,335,1.9,3.3,92,0.00,n/a,n/a,-99.99,Henriksen +1-Wire,2013-01-11 11:26:00,
2013-01-11 06:31:00,26.0,24.1,30.45,NNE,13,1.8,3.3,92,0.00,n/a,n/a,-99.99,Henriksen +1-Wire,2013-01-11 11:31:00,
2013-01-11 06:36:00,25.8,24.0,30.45,NNW,348,1.8,3.2,92,0.00,n/a,n/a,-99.99,Henriksen +1-Wire,2013-01-11 11:36:00,
2013-01-11 06:41:00,25.8,24.0,30.46,North,8,0.2,3.2,92,0.00,n/a,n/a,-99.99,Henriksen +1-Wire,2013-01-11 11:41:00,
2013-01-11 06:46:00,25.9,24.1,30.46,NNE,16,1.5,2.5,92,0.00,n/a,n/a,-99.99,Henriksen +1-Wire,2013-01-11 11:46:00,
2013-01-11 06:52:00,26.3,24.6,30.45,NNE,24,0.0,2.4,92,0.00,n/a,n/a,-99.99,Henriksen +1-Wire,2013-01-11 11:52:00,
2013-01-11 06:57:00,26.5,24.9,30.46,North,11,1.2,2.4,93,0.00,n/a,n/a,-99.99,Henriksen +1-Wire,2013-01-11 11:57:00,
2013-01-11 07:02:00,26.6,25.0,30.46,North,354,0.0,2.4,93,0.00,n/a,n/a,-99.99,Henriksen +1-Wire,2013-01-11 12:02:00,
2013-01-11 07:08:00,26.6,25.3,30.46,North,4,0.3,1.6,94,0.00,n/a,n/a,-99.99,Henriksen +1-Wire,2013-01-11 12:08:00,
2013-01-11 07:13:00,26.5,25.3,30.46,ENE,68,1.0,2.5,95,0.00,n/a,n/a,-99.99,Henriksen +1-Wire,2013-01-11 12:13:00,
2013-01-11 07:18:00,26.5,25.2,30.46,ENE,62,2.0,3.2,94,0.00,n/a,n/a,-99.99,Henriksen +1-Wire,2013-01-11 12:18:00,
2013-01-11 07:23:00,26.2,24.9,30.46,ENE,63,0.2,3.2,94,0.00,n/a,n/a,-99.99,Henriksen +1-Wire,2013-01-11 12:23:00,
2013-01-11 07:28:00,26.3,24.8,30.46,South,182,0.3,2.4,94,0.00,n/a,n/a,-99.99,Henriksen +1-Wire,2013-01-11 12:28:00,
2013-01-11 07:33:00,26.3,24.8,30.47,NE,41,2.2,3.2,94,0.00,n/a,n/a,-99.99,Henriksen +1-Wire,2013-01-11 12:33:00,
2013-01-11 07:38:00,26.4,24.8,30.46,NE,42,0.1,3.2,93,0.00,n/a,n/a,-99.99,Henriksen +1-Wire,2013-01-11 12:38:00,
2013-01-11 07:44:00,26.5,24.9,30.46,NNE,28,1.2,2.4,93,0.00,n/a,n/a,-99.99,Henriksen +1-Wire,2013-01-11 12:44:00,
2013-01-11 07:49:00,26.7,25.0,30.46,NNE,15,0.2,2.4,93,0.00,n/a,n/a,-99.99,Henriksen +1-Wire,2013-01-11 12:49:00,
2013-01-11 07:54:00,26.2,24.6,30.46,NW,324,0.0,2.4,93,0.00,n/a,n/a,-99.99,Henriksen +1-Wire,2013-01-11 12:54:00,
2013-01-11 07:59:00,26.0,24.5,30.47,NNW,332,0.9,2.4,93,0.00,n/a,n/a,-99.99,Henriksen +1-Wire,2013-01-11 12:59:00,
2013-01-11 08:05:00,26.0,24.4,30.47,NE,36,0.1,2.4,93,0.00,n/a,n/a,-99.99,Henriksen +1-Wire,2013-01-11 13:05:00,
2013-01-11 08:10:00,26.5,24.9,30.47,NE,39,1.7,2.5,93,0.00,n/a,n/a,-99.99,Henriksen +1-Wire,2013-01-11 13:10:00,
2013-01-11 08:16:00,27.4,25.7,30.47,North,8,1.4,3.3,93,0.00,n/a,n/a,-99.99,Henriksen +1-Wire,2013-01-11 13:16:00,
2013-01-11 08:21:00,27.6,25.7,30.47,NW,306,0.1,3.3,92,0.00,n/a,n/a,-99.99,Henriksen +1-Wire,2013-01-11 13:21:00,
2013-01-11 08:26:00,27.5,25.3,30.46,NNW,341,2.1,3.1,91,0.00,n/a,n/a,-99.99,Henriksen +1-Wire,2013-01-11 13:26:00,
2013-01-11 08:31:00,27.4,25.0,30.46,NE,45,1.2,3.1,90,0.00,n/a,n/a,-99.99,Henriksen +1-Wire,2013-01-11 13:31:00,
2013-01-11 08:37:00,27.6,24.7,30.46,NNE,12,1.9,3.2,89,0.00,n/a,n/a,-99.99,Henriksen +1-Wire,2013-01-11 13:37:00,
2013-01-11 08:42:00,27.8,24.8,30.46,North,7,1.1,3.2,88,0.00,n/a,n/a,-99.99,Henriksen +1-Wire,2013-01-11 13:42:00,
2013-01-11 08:48:00,28.6,25.4,30.46,North,5,2.1,3.2,87,0.00,n/a,n/a,-99.99,Henriksen +1-Wire,2013-01-11 13:48:00,
2013-01-11 08:53:00,29.2,25.7,30.46,NNE,31,1.9,3.2,86,0.00,n/a,n/a,-99.99,Henriksen +1-Wire,2013-01-11 13:53:00,
2013-01-11 08:58:00,29.5,25.9,30.46,NNE,33,1.8,3.2,86,0.00,n/a,n/a,-99.99,Henriksen +1-Wire,2013-01-11 13:58:00,
2013-01-11 09:03:00,29.7,26.0,30.46,North,5,1.6,2.5,85,0.00,n/a,n/a,-99.99,Henriksen +1-Wire,2013-01-11 14:03:00,
2013-01-11 09:08:00,29.5,25.5,30.46,North,10,1.7,3.1,84,0.00,n/a,n/a,-99.99,Henriksen +1-Wire,2013-01-11 14:08:00,
2013-01-11 09:13:00,29.4,25.3,30.46,North,8,1.8,3.1,84,0.00,n/a,n/a,-99.99,Henriksen +1-Wire,2013-01-11 14:13:00,
2013-01-11 09:18:00,29.6,25.2,30.46,NNE,13,1.7,3.2,83,0.00,n/a,n/a,-99.99,Henriksen +1-Wire,2013-01-11 14:18:00,
2013-01-11 09:23:00,30.5,25.9,30.46,NNE,12,1.7,3.2,82,0.00,n/a,n/a,-99.99,Henriksen +1-Wire,2013-01-11 14:23:00,
2013-01-11 09:29:00,31.1,26.1,30.46,North,11,1.7,2.6,81,0.00,n/a,n/a,-99.99,Henriksen +1-Wire,2013-01-11 14:29:00,
2013-01-11 09:34:00,31.5,26.3,30.45,NNE,24,1.6,3.2,80,0.00,n/a,n/a,-99.99,Henriksen +1-Wire,2013-01-11 14:34:00,
2013-01-11 09:39:00,31.4,26.0,30.45,NNE,24,2.2,3.2,80,0.00,n/a,n/a,-99.99,Henriksen +1-Wire,2013-01-11 14:39:00,
2013-01-11 09:44:00,31.3,25.7,30.45,NNE,26,0.1,3.2,79,0.00,n/a,n/a,-99.99,Henriksen +1-Wire,2013-01-11 14:44:00,
2013-01-11 09:49:00,31.4,25.6,30.45,NNE,21,1.8,3.3,78,0.00,n/a,n/a,-99.99,Henriksen +1-Wire,2013-01-11 14:49:00,
2013-01-11 09:55:00,31.9,25.7,30.45,NNE,18,0.2,3.3,77,0.00,n/a,n/a,-99.99,Henriksen +1-Wire,2013-01-11 14:55:00,
2013-01-11 10:00:00,32.2,25.5,30.45,ENE,59,0.8,2.4,76,0.00,n/a,n/a,-99.99,Henriksen +1-Wire,2013-01-11 15:00:00,
2013-01-11 10:06:00,32.8,25.6,30.45,East,79,0.4,2.4,74,0.00,n/a,n/a,-99.99,Henriksen +1-Wire,2013-01-11 15:06:00,
2013-01-11 10:11:00,33.3,25.7,30.45,NNE,21,0.4,3.1,73,0.00,n/a,n/a,-99.99,Henriksen +1-Wire,2013-01-11 15:11:00,
2013-01-11 10:16:00,33.6,25.7,30.45,ENE,63,1.4,3.1,72,0.00,n/a,n/a,-99.99,Henriksen +1-Wire,2013-01-11 15:16:00,
2013-01-11 10:21:00,34.0,25.8,30.45,ENE,66,1.6,2.9,71,0.00,n/a,n/a,-99.99,Henriksen +1-Wire,2013-01-11 15:21:00,
2013-01-11 10:26:00,34.3,25.7,30.44,ENE,63,2.7,4.7,70,0.00,n/a,n/a,-99.99,Henriksen +1-Wire,2013-01-11 15:26:00,
2013-01-11 10:31:00,34.6,25.8,30.44,East,85,2.1,4.7,69,0.00,n/a,n/a,-99.99,Henriksen +1-Wire,2013-01-11 15:31:00,
2013-01-11 10:36:00,35.0,26.0,30.44,East,87,3.1,4.7,69,0.00,n/a,n/a,-99.99,Henriksen +1-Wire,2013-01-11 15:36:00,
2013-01-11 10:41:00,35.2,26.2,30.44,NE,51,2.8,6.3,69,0.00,n/a,n/a,-99.99,Henriksen +1-Wire,2013-01-11 15:41:00,
2013-01-11 10:47:00,35.3,26.5,30.43,ENE,67,3.6,6.3,69,0.00,n/a,n/a,-99.99,Henriksen +1-Wire,2013-01-11 15:47:00,
2013-01-11 10:52:00,35.4,26.8,30.43,NE,53,3.2,6.3,70,0.00,n/a,n/a,-99.99,Henriksen +1-Wire,2013-01-11 15:52:00,
2013-01-11 10:57:00,35.5,27.2,30.42,ENE,73,5.6,8.6,71,0.00,n/a,n/a,-99.99,Henriksen +1-Wire,2013-01-11 15:57:00,
2013-01-11 11:02:00,35.6,27.4,30.42,ESE,115,4.0,8.6,71,0.00,n/a,n/a,-99.99,Henriksen +1-Wire,2013-01-11 16:02:00,
2013-01-11 11:07:00,35.8,27.5,30.42,East,97,2.6,7.9,71,0.00,n/a,n/a,-99.99,Henriksen +1-Wire,2013-01-11 16:07:00,
2013-01-11 11:12:00,35.8,27.6,30.41,ESE,111,5.1,7.7,71,0.00,n/a,n/a,-99.99,Henriksen +1-Wire,2013-01-11 16:12:00,
2013-01-11 11:17:00,35.9,27.6,30.41,East,88,3.7,7.7,71,0.00,n/a,n/a,-99.99,Henriksen +1-Wire,2013-01-11 16:17:00,
2013-01-11 11:22:00,35.9,27.6,30.40,ENE,77,3.7,7.9,71,0.00,n/a,n/a,-99.99,Henriksen +1-Wire,2013-01-11 16:22:00,
2013-01-11 11:27:00,35.8,27.6,30.40,ENE,78,1.6,7.9,71,0.00,n/a,n/a,-99.99,Henriksen +1-Wire,2013-01-11 16:27:00,
2013-01-11 11:32:00,36.0,27.8,30.40,ENE,65,4.3,6.5,72,0.00,n/a,n/a,-99.99,Henriksen +1-Wire,2013-01-11 16:32:00,
2013-01-11 11:37:00,36.0,28.0,30.40,East,83,1.5,6.5,72,0.00,n/a,n/a,-99.99,Henriksen +1-Wire,2013-01-11 16:37:00,
2013-01-11 11:42:00,36.3,28.2,30.39,East,83,1.2,5.6,72,0.00,n/a,n/a,-99.99,Henriksen +1-Wire,2013-01-11 16:42:00,
2013-01-11 11:47:00,36.5,28.2,30.39,East,88,2.7,6.0,71,0.00,n/a,n/a,-99.99,Henriksen +1-Wire,2013-01-11 16:47:00,
2013-01-11 11:52:00,36.5,28.0,30.39,East,95,3.8,6.0,70,0.00,n/a,n/a,-99.99,Henriksen +1-Wire,2013-01-11 16:52:00,
2013-01-11 11:58:00,36.2,27.6,30.39,ENE,69,3.4,5.6,70,0.00,n/a,n/a,-99.99,Henriksen +1-Wire,2013-01-11 16:58:00,
2013-01-11 12:03:00,36.1,27.5,30.38,East,84,2.8,5.5,70,0.00,n/a,n/a,-99.99,Henriksen +1-Wire,2013-01-11 17:03:00,
2013-01-11 12:08:00,36.0,27.5,30.38,ENE,78,2.9,5.0,71,0.00,n/a,n/a,-99.99,Henriksen +1-Wire,2013-01-11 17:08:00,
2013-01-11 12:13:00,36.0,27.4,30.38,East,99,2.9,6.9,70,0.00,n/a,n/a,-99.99,Henriksen +1-Wire,2013-01-11 17:13:00,
2013-01-11 12:18:00,35.9,27.3,30.38,East,86,3.6,6.9,70,0.00,n/a,n/a,-99.99,Henriksen +1-Wire,2013-01-11 17:18:00,
2013-01-11 12:23:00,35.9,27.3,30.38,ENE,67,3.1,5.5,70,0.00,n/a,n/a,-99.99,Henriksen +1-Wire,2013-01-11 17:23:00,
2013-01-11 12:28:00,35.9,27.3,30.37,ENE,73,1.7,4.7,70,0.00,n/a,n/a,-99.99,Henriksen +1-Wire,2013-01-11 17:28:00,
2013-01-11 12:33:00,36.1,27.4,30.37,ESE,122,4.0,6.3,70,0.00,n/a,n/a,-99.99,Henriksen +1-Wire,2013-01-11 17:33:00,
2013-01-11 12:38:00,36.2,27.4,30.37,ESE,113,3.4,6.3,70,0.00,n/a,n/a,-99.99,Henriksen +1-Wire,2013-01-11 17:38:00,
2013-01-11 12:43:00,36.3,27.5,30.37,ENE,69,2.4,6.1,70,0.00,n/a,n/a,-99.99,Henriksen +1-Wire,2013-01-11 17:43:00,
2013-01-11 12:48:00,36.2,27.7,30.37,ENE,66,2.8,4.2,70,0.00,n/a,n/a,-99.99,Henriksen +1-Wire,2013-01-11 17:48:00,
2013-01-11 12:54:00,36.1,23.1,30.37,East,92,0.7,4.7,58,0.00,n/a,n/a,-99.99,Henriksen +1-Wire,2013-01-11 17:54:00,
2013-01-11 12:59:00,36.1,16.9,30.37,East,100,2.3,4.6,45,0.00,n/a,n/a,-99.99,Henriksen +1-Wire,2013-01-11 17:59:00,
2013-01-11 13:05:00,36.0,19.2,30.36,East,81,1.4,4.7,50,0.00,n/a,n/a,-99.99,Henriksen +1-Wire,2013-01-11 18:05:00,
2013-01-11 13:10:00,35.9,23.3,30.37,ENE,74,2.2,4.7,59,0.00,n/a,n/a,-99.99,Henriksen +1-Wire,2013-01-11 18:10:00,
2013-01-11 13:16:00,36.0,25.9,30.37,ENE,63,1.2,3.5,66,0.00,n/a,n/a,-99.99,Henriksen +1-Wire,2013-01-11 18:16:00,
2013-01-11 13:21:00,36.0,26.7,30.37,ENE,59,0.8,3.2,68,0.00,n/a,n/a,-99.99,Henriksen +1-Wire,2013-01-11 18:21:00,
2013-01-11 13:27:00,36.0,27.6,30.36,ENE,63,0.8,3.3,71,0.00,n/a,n/a,-99.99,Henriksen +1-Wire,2013-01-11 18:27:00,
2013-01-11 13:32:00,36.0,28.1,30.36,SE,139,0.5,3.3,72,0.00,n/a,n/a,-99.99,Henriksen +1-Wire,2013-01-11 18:32:00,
2013-01-11 13:37:00,36.1,28.3,30.36,ENE,71,0.9,3.5,73,0.00,n/a,n/a,-99.99,Henriksen +1-Wire,2013-01-11 18:37:00,
2013-01-11 13:42:00,36.1,28.5,30.36,ENE,61,0.6,3.5,73,0.00,n/a,n/a,-99.99,Henriksen +1-Wire,2013-01-11 18:42:00,
2013-01-11 13:47:00,36.2,28.6,30.36,East,92,0.1,2.1,73,0.00,n/a,n/a,-99.99,Henriksen +1-Wire,2013-01-11 18:47:00,
2013-01-11 13:52:00,36.2,28.6,30.36,ENE,75,0.5,1.9,73,0.00,n/a,n/a,-99.99,Henriksen +1-Wire,2013-01-11 18:52:00,
2013-01-11 13:57:00,36.3,28.6,30.36,East,87,0.7,2.4,73,0.00,n/a,n/a,-99.99,Henriksen +1-Wire,2013-01-11 18:57:00,
2013-01-11 14:02:00,36.3,28.6,30.36,ENE,69,0.7,3.2,73,0.00,n/a,n/a,-99.99,Henriksen +1-Wire,2013-01-11 19:02:00,
2013-01-11 14:08:00,36.3,28.6,30.35,ENE,76,1.7,3.1,73,0.00,n/a,n/a,-99.99,Henriksen +1-Wire,2013-01-11 19:08:00,
2013-01-11 14:13:00,36.3,28.6,30.35,ENE,77,0.9,2.9,73,0.00,n/a,n/a,-99.99,Henriksen +1-Wire,2013-01-11 19:13:00,
2013-01-11 14:18:00,36.3,28.6,30.35,ENE,77,0.5,2.8,73,0.00,n/a,n/a,-99.99,Henriksen +1-Wire,2013-01-11 19:18:00,
2013-01-11 14:23:00,36.3,28.6,30.35,ESE,118,0.0,2.4,73,0.00,n/a,n/a,-99.99,Henriksen +1-Wire,2013-01-11 19:23:00,
2013-01-11 14:28:00,36.3,28.7,30.34,East,99,0.0,0.0,73,0.00,n/a,n/a,-99.99,Henriksen +1-Wire,2013-01-11 19:28:00,
2013-01-11 14:33:00,36.3,28.9,30.34,East,80,0.1,1.6,74,0.00,n/a,n/a,-99.99,Henriksen +1-Wire,2013-01-11 19:33:00,
2013-01-11 14:38:00,36.2,29.0,30.34,East,80,0.0,1.6,74,0.00,n/a,n/a,-99.99,Henriksen +1-Wire,2013-01-11 19:38:00,
2013-01-11 14:43:00,36.2,29.1,30.33,ENE,61,1.0,2.4,75,0.00,n/a,n/a,-99.99,Henriksen +1-Wire,2013-01-11 19:43:00,
2013-01-11 14:48:00,36.1,29.0,30.33,ENE,69,0.8,3.5,75,0.00,n/a,n/a,-99.99,Henriksen +1-Wire,2013-01-11 19:48:00,
2013-01-11 16:51:00,35.1,29.4,30.28,SE,131,1.6,4.2,79,0.00,n/a,n/a,-99.99,Henriksen +1-Wire,2013-01-11 21:51:00,
2013-01-11 16:56:00,35.1,29.4,30.28,ESE,116,0.7,4.7,79,0.00,n/a,n/a,-99.99,Henriksen +1-Wire,2013-01-11 21:56:00,
2013-01-11 17:01:00,35.1,29.5,30.28,ENE,77,0.2,4.7,79,0.00,n/a,n/a,-99.99,Henriksen +1-Wire,2013-01-11 22:01:00,
2013-01-11 17:06:00,35.1,29.6,30.28,East,95,1.1,2.4,80,0.00,n/a,n/a,-99.99,Henriksen +1-Wire,2013-01-11 22:06:00,
2013-01-11 17:11:00,34.9,29.6,30.28,NE,50,1.2,2.5,80,0.00,n/a,n/a,-99.99,Henriksen +1-Wire,2013-01-11 22:11:00,
2013-01-11 17:16:00,34.9,29.8,30.28,NNE,31,0.8,2.5,81,0.00,n/a,n/a,-99.99,Henriksen +1-Wire,2013-01-11 22:16:00,
2013-01-11 17:21:00,34.9,29.9,30.28,WSW,245,0.1,1.9,81,0.00,n/a,n/a,-99.99,Henriksen +1-Wire,2013-01-11 22:21:00,
2013-01-11 17:26:00,34.9,30.0,30.28,West,271,0.0,1.7,82,0.00,n/a,n/a,-99.99,Henriksen +1-Wire,2013-01-11 22:26:00,
2013-01-11 17:31:00,34.9,30.1,30.28,WNW,282,0.0,0.0,82,0.00,n/a,n/a,-99.99,Henriksen +1-Wire,2013-01-11 22:31:00,
2013-01-11 17:36:00,35.0,30.3,30.29,WNW,299,0.0,0.0,82,0.00,n/a,n/a,-99.99,Henriksen +1-Wire,2013-01-11 22:36:00,
2013-01-11 17:41:00,35.0,30.4,30.29,North,9,0.0,0.0,83,0.00,n/a,n/a,-99.99,Henriksen +1-Wire,2013-01-11 22:41:00,
2013-01-11 17:46:00,35.0,30.5,30.28,North,1,0.0,0.0,83,0.00,n/a,n/a,-99.99,Henriksen +1-Wire,2013-01-11 22:46:00,
2013-01-11 17:51:00,35.0,30.5,30.28,NW,306,0.0,0.8,83,0.00,n/a,n/a,-99.99,Henriksen +1-Wire,2013-01-11 22:51:00,
2013-01-11 17:56:00,35.0,30.6,30.28,NW,318,0.1,2.3,83,0.00,n/a,n/a,-99.99,Henriksen +1-Wire,2013-01-11 22:56:00,
2013-01-11 18:01:00,35.0,30.6,30.28,NNW,337,1.2,2.4,83,0.00,n/a,n/a,-99.99,Henriksen +1-Wire,2013-01-11 23:01:00,
2013-01-11 18:06:00,35.0,30.4,30.28,NNW,335,1.2,2.4,83,0.00,n/a,n/a,-99.99,Henriksen +1-Wire,2013-01-11 23:06:00,
2013-01-11 18:11:00,34.9,30.2,30.27,North,9,0.0,2.4,82,0.00,n/a,n/a,-99.99,Henriksen +1-Wire,2013-01-11 23:11:00,
2013-01-11 18:17:00,34.8,30.0,30.27,NNW,342,0.3,2.4,82,0.00,n/a,n/a,-99.99,Henriksen +1-Wire,2013-01-11 23:17:00,
2013-01-11 18:22:00,34.7,30.0,30.27,NNE,25,0.0,2.4,82,0.00,n/a,n/a,-99.99,Henriksen +1-Wire,2013-01-11 23:22:00,
2013-01-11 18:27:00,34.6,30.0,30.27,NNE,16,0.2,1.6,82,0.00,n/a,n/a,-99.99,Henriksen +1-Wire,2013-01-11 23:27:00,
2013-01-11 18:32:00,34.6,30.0,30.27,NNW,331,0.2,1.6,83,0.00,n/a,n/a,-99.99,Henriksen +1-Wire,2013-01-11 23:32:00,
2013-01-11 18:37:00,34.5,30.1,30.27,NNW,335,0.0,1.6,83,0.00,n/a,n/a,-99.99,Henriksen +1-Wire,2013-01-11 23:37:00,
2013-01-11 18:42:00,34.4,25.4,30.27,NNW,332,0.0,0.0,69,0.00,n/a,n/a,-99.99,Henriksen +1-Wire,2013-01-11 23:42:00,
2013-01-11 18:47:00,34.3,20.3,30.26,NNW,335,0.0,0.0,56,0.00,n/a,n/a,-99.99,Henriksen +1-Wire,2013-01-11 23:47:00,
2013-01-11 18:52:00,34.3,21.0,30.26,WNW,298,0.4,1.7,58,0.00,n/a,n/a,-99.99,Henriksen +1-Wire,2013-01-11 23:52:00,
2013-01-11 18:57:00,34.2,25.3,30.26,SW,215,1.0,3.1,69,0.00,n/a,n/a,-99.99,Henriksen +1-Wire,2013-01-11 23:57:00,
2013-01-11 19:02:00,34.2,27.2,30.26,SSW,205,1.8,4.7,75,0.00,n/a,n/a,-99.99,Henriksen +1-Wire,2013-01-12 00:02:00,
2013-01-11 19:07:00,34.4,29.0,30.26,SSW,198,2.6,4.7,80,0.00,n/a,n/a,-99.99,Henriksen +1-Wire,2013-01-12 00:07:00,
2013-01-11 19:12:00,34.8,30.5,30.25,South,190,3.3,5.6,84,0.00,n/a,n/a,-99.99,Henriksen +1-Wire,2013-01-12 00:12:00,
2013-01-11 19:18:00,35.2,32.1,30.25,SSW,193,2.7,6.3,88,0.00,n/a,n/a,-99.99,Henriksen +1-Wire,2013-01-12 00:18:00,
2013-01-11 19:23:00,35.9,33.3,30.25,SW,214,3.8,6.6,90,0.00,n/a,n/a,-99.99,Henriksen +1-Wire,2013-01-12 00:23:00,
2013-01-11 19:28:00,36.4,34.2,30.25,SW,215,3.6,7.1,91,0.00,n/a,n/a,-99.99,Henriksen +1-Wire,2013-01-12 00:28:00,
2013-01-11 19:33:00,36.9,34.7,30.25,SW,215,2.7,7.1,91,0.00,n/a,n/a,-99.99,Henriksen +1-Wire,2013-01-12 00:33:00,
2013-01-11 19:38:00,37.2,34.8,30.25,SW,216,3.3,5.6,91,0.00,n/a,n/a,-99.99,Henriksen +1-Wire,2013-01-12 00:38:00,
2013-01-11 19:44:00,37.5,34.9,30.25,SSW,209,4.3,7.1,90,0.00,n/a,n/a,-99.99,Henriksen +1-Wire,2013-01-12 00:44:00,
2013-01-11 19:49:00,37.7,35.0,30.25,SW,214,3.5,7.1,89,0.00,n/a,n/a,-99.99,Henriksen +1-Wire,2013-01-12 00:49:00,
2013-01-11 19:55:00,37.8,35.0,30.25,SW,217,3.5,6.3,89,0.00,n/a,n/a,-99.99,Henriksen +1-Wire,2013-01-12 00:55:00,
2013-01-11 20:00:00,37.8,35.1,30.25,SW,218,3.5,6.1,89,0.00,n/a,n/a,-99.99,Henriksen +1-Wire,2013-01-12 01:00:00,
2013-01-11 20:06:00,37.9,35.1,30.24,SSW,213,3.7,6.2,89,0.00,n/a,n/a,-99.99,Henriksen +1-Wire,2013-01-12 01:06:00,
2013-01-11 20:11:00,38.0,35.1,30.24,SSW,211,4.1,7.8,89,0.00,n/a,n/a,-99.99,Henriksen +1-Wire,2013-01-12 01:11:00,
2013-01-11 20:16:00,38.0,35.1,30.24,SW,215,4.1,7.8,89,0.00,n/a,n/a,-99.99,Henriksen +1-Wire,2013-01-12 01:16:00,
2013-01-11 20:22:00,38.2,35.2,30.24,South,188,6.4,10.3,88,0.00,n/a,n/a,-99.99,Henriksen +1-Wire,2013-01-12 01:22:00,
2013-01-11 20:27:00,38.2,35.2,30.23,SSW,211,4.6,10.3,88,0.00,n/a,n/a,-99.99,Henriksen +1-Wire,2013-01-12 01:27:00,
2013-01-11 20:32:00,38.2,35.3,30.24,SW,216,5.1,9.2,89,0.01,n/a,n/a,-99.99,Henriksen +1-Wire,2013-01-12 01:32:00,
2013-01-11 20:37:00,38.2,35.3,30.24,SW,217,4.6,9.2,89,0.01,n/a,n/a,-99.99,Henriksen +1-Wire,2013-01-12 01:37:00,
2013-01-11 20:42:00,38.0,35.3,30.24,SW,222,3.9,8.4,89,0.01,n/a,n/a,-99.99,Henriksen +1-Wire,2013-01-12 01:42:00,
2013-01-11 20:47:00,37.9,35.4,30.24,SW,218,3.8,7.1,90,0.01,n/a,n/a,-99.99,Henriksen +1-Wire,2013-01-12 01:47:00,
2013-01-11 20:52:00,37.9,35.6,30.24,SW,219,4.3,7.9,91,0.01,n/a,n/a,-99.99,Henriksen +1-Wire,2013-01-12 01:52:00,
2013-01-11 20:57:00,37.8,35.7,30.23,SW,216,4.2,7.9,92,0.02,n/a,n/a,-99.99,Henriksen +1-Wire,2013-01-12 01:57:00,
2013-01-11 21:02:00,37.8,35.9,30.23,SW,214,4.4,7.9,92,0.03,n/a,n/a,-99.99,Henriksen +1-Wire,2013-01-12 02:02:00,
2013-01-11 21:07:00,37.8,36.1,30.23,SW,220,5.4,8.6,93,0.03,n/a,n/a,-99.99,Henriksen +1-Wire,2013-01-12 02:07:00,
2013-01-11 21:13:00,37.7,36.2,30.23,SSW,208,4.6,8.6,94,0.03,n/a,n/a,-99.99,Henriksen +1-Wire,2013-01-12 02:13:00,
2013-01-11 21:18:00,37.7,36.3,30.23,SSW,213,3.5,8.2,94,0.04,n/a,n/a,-99.99,Henriksen +1-Wire,2013-01-12 02:18:00,
2013-01-11 21:23:00,37.7,36.4,30.23,SSW,195,3.5,7.1,95,0.04,n/a,n/a,-99.99,Henriksen +1-Wire,2013-01-12 02:23:00,
2013-01-11 21:29:00,37.6,36.4,30.23,SSW,193,3.6,8.4,95,0.04,n/a,n/a,-99.99,Henriksen +1-Wire,2013-01-12 02:29:00,
2013-01-11 21:34:00,37.6,36.5,30.23,South,187,6.5,11.1,95,0.03,n/a,n/a,-99.99,Henriksen +1-Wire,2013-01-12 02:34:00,
2013-01-11 21:40:00,37.7,36.6,30.22,South,188,4.9,11.1,96,0.03,n/a,n/a,-99.99,Henriksen +1-Wire,2013-01-12 02:40:00,
2013-01-11 21:46:00,37.7,36.6,30.22,SSW,193,6.2,11.3,95,0.04,n/a,n/a,-99.99,Henriksen +1-Wire,2013-01-12 02:46:00,
2013-01-11 21:51:00,37.7,36.7,30.22,South,187,3.3,11.3,95,0.04,n/a,n/a,-99.99,Henriksen +1-Wire,2013-01-12 02:51:00,
2013-01-11 21:56:00,37.8,36.7,30.22,South,190,4.7,9.4,96,0.03,n/a,n/a,-99.99,Henriksen +1-Wire,2013-01-12 02:56:00,
2013-01-11 22:02:00,37.8,36.8,30.22,SSW,204,4.4,8.7,96,0.02,n/a,n/a,-99.99,Henriksen +1-Wire,2013-01-12 03:02:00,
2013-01-11 22:07:00,37.8,36.9,30.22,SSW,209,4.0,8.4,96,0.02,n/a,n/a,-99.99,Henriksen +1-Wire,2013-01-12 03:07:00,
2013-01-11 22:13:00,37.8,36.9,30.22,SSW,209,4.4,7.1,96,0.02,n/a,n/a,-99.99,Henriksen +1-Wire,2013-01-12 03:13:00,
2013-01-11 22:18:00,37.9,37.0,30.21,SSW,210,4.3,7.1,96,0.01,n/a,n/a,-99.99,Henriksen +1-Wire,2013-01-12 03:18:00,
2013-01-11 22:23:00,37.9,37.1,30.21,SSW,204,4.7,9.5,96,0.01,n/a,n/a,-99.99,Henriksen +1-Wire,2013-01-12 03:23:00,
2013-01-11 22:28:00,38.0,37.0,30.21,SSW,202,4.1,9.5,96,0.01,n/a,n/a,-99.99,Henriksen +1-Wire,2013-01-12 03:28:00,
2013-01-11 22:33:00,38.0,37.0,30.21,SW,215,5.5,8.7,95,0.01,n/a,n/a,-99.99,Henriksen +1-Wire,2013-01-12 03:33:00,
2013-01-11 22:38:00,38.1,36.9,30.21,SSW,213,4.4,10.0,95,0.01,n/a,n/a,-99.99,Henriksen +1-Wire,2013-01-12 03:38:00,
2013-01-11 22:43:00,38.1,36.9,30.21,SSW,207,3.8,10.0,95,0.00,n/a,n/a,-99.99,Henriksen +1-Wire,2013-01-12 03:43:00,
2013-01-11 22:48:00,38.2,36.9,30.21,SSW,206,5.5,11.0,95,0.00,n/a,n/a,-99.99,Henriksen +1-Wire,2013-01-12 03:48:00,
2013-01-11 22:53:00,38.2,36.9,30.21,SSW,207,4.5,11.0,94,0.00,n/a,n/a,-99.99,Henriksen +1-Wire,2013-01-12 03:53:00,
2013-01-11 22:58:00,38.2,36.8,30.21,SSW,213,4.4,8.7,94,0.00,n/a,n/a,-99.99,Henriksen +1-Wire,2013-01-12 03:58:00,
2013-01-11 23:03:00,38.2,36.7,30.21,SW,221,5.3,8.7,94,0.00,n/a,n/a,-99.99,Henriksen +1-Wire,2013-01-12 04:03:00,
2013-01-11 23:09:00,38.2,36.7,30.21,SW,217,5.3,11.1,94,0.00,n/a,n/a,-99.99,Henriksen +1-Wire,2013-01-12 04:09:00,
2013-01-11 23:15:00,38.3,36.8,30.21,SW,214,5.4,11.1,94,0.01,n/a,n/a,-99.99,Henriksen +1-Wire,2013-01-12 04:15:00,
2013-01-11 23:20:00,38.2,36.9,30.21,SW,215,5.1,11.1,94,0.01,n/a,n/a,-99.99,Henriksen +1-Wire,2013-01-12 04:20:00,
2013-01-11 23:26:00,38.2,37.0,30.21,SSW,213,5.4,8.7,95,0.02,n/a,n/a,-99.99,Henriksen +1-Wire,2013-01-12 04:26:00,
2013-01-11 23:31:00,38.2,37.1,30.21,SW,220,4.1,8.7,95,0.02,n/a,n/a,-99.99,Henriksen +1-Wire,2013-01-12 04:31:00,
2013-01-11 23:36:00,38.2,37.2,30.21,SW,218,5.6,9.4,96,0.02,n/a,n/a,-99.99,Henriksen +1-Wire,2013-01-12 04:36:00,
2013-01-11 23:42:00,38.3,37.3,30.20,SW,215,5.3,9.5,96,0.02,n/a,n/a,-99.99,Henriksen +1-Wire,2013-01-12 04:42:00,
2013-01-11 23:48:00,38.3,37.4,30.20,SSW,213,6.0,9.5,96,0.02,n/a,n/a,-99.99,Henriksen +1-Wire,2013-01-12 04:48:00,
2013-01-11 23:53:00,38.4,37.5,30.20,SSW,213,5.1,9.5,96,0.02,n/a,n/a,-99.99,Henriksen +1-Wire,2013-01-12 04:53:00,
2013-01-11 23:59:00,38.4,37.7,30.20,SW,214,5.8,9.5,97,0.02,n/a,n/a,-99.99,Henriksen +1-Wire,2013-01-12 04:59:00,